Terug naar catalogus

SL-12 DEB

LostHEO
NORAD 41649·DEBRIS·🇷🇺 Russia

Gelanceerd Dec 25, 2008 vanaf Baikonur Cosmodrome

Loading…

Volgende Passages (komende 24 uur)

TLE

VerouderdSource: Space-Track

Epoch: Nov 20, 2018, 09:25 UTC

1 41649U 08067V   18324.39272081  .00000004  00000-0  00000+0 0  9998
2 41649  64.7509 100.2097 5363637  41.2834 348.7641  4.15898716 36888

Volg SL-12 DEB in realtime met AllMySat

Download on the App Store